When you browse on this site, cookies collect data to enhance your experience and personalize the content and advertising you see.
Visit our Privacy Policy to learn more. By continuing to use the site, you agree to this use of cookies and data.
  • In Hungary
  • List of Countries
  • For 7 days
  • Water Temperature
  • Satellite Maps
  • Weather Map
  • News
  • Weather Widgets
  • user-avatar
    Login

    Hourly Weather Pawlowek

    Today, 26 May, Sunday

    Time Temperature Precipitation Wind Pressure Humidity
    00:00 +8°C° 0 mm 2 mps 754 mmHg 92%
    01:00 +7°C° 0 mm 2 mps 754 mmHg 94%
    02:00 +7°C° 0 mm 3 mps 754 mmHg 94%
    03:00 +7°C° 0 mm 3 mps 754 mmHg 94%
    04:00 +7°C° 0 mm 3 mps 754 mmHg 95%
    05:00 +8°C° 0 mm 3 mps 754 mmHg 90%
    06:00 +10°C° 0 mm 4 mps 754 mmHg 85%
    07:00 +10°C° 0 mm 5 mps 754 mmHg 80%
    08:00 +12°C° 0 mm 5 mps 753 mmHg 75%
    09:00 +13°C° 0 mm 5 mps 753 mmHg 71%
    10:00 +15°C° 0 mm 5 mps 753 mmHg 67%
    11:00 +15°C° 0 mm 5 mps 753 mmHg 65%
    12:00 +16°C° 0 mm 5 mps 753 mmHg 63%
    13:00 +17°C° 0 mm 6 mps 752 mmHg 61%
    14:00 +17°C° 0 mm 6 mps 752 mmHg 60%
    15:00 +19°C° 0 mm 5 mps 752 mmHg 59%
    16:00 +20°C° 0 mm 5 mps 751 mmHg 58%
    17:00 +19°C° 0 mm 5 mps 751 mmHg 64%
    18:00 +18°C° 0 mm 4 mps 751 mmHg 69%
    19:00 +17°C° 0 mm 3 mps 751 mmHg 75%
    20:00 +16°C° 0 mm 3 mps 751 mmHg 76%
    21:00 +16°C° 0 mm 3 mps 751 mmHg 78%
    22:00 +14°C° 0 mm 3 mps 751 mmHg 80%
    23:00 +14°C° 0 mm 3 mps 750 mmHg 82%

    Tomorrow, 27 May, Monday

    Time Temperature Precipitation Wind Pressure Humidity
    00:00 +13°C° 0 mm 3 mps 750 mmHg 85%
    01:00 +13°C° 0 mm 3 mps 750 mmHg 88%
    02:00 +13°C° 0 mm 4 mps 750 mmHg 86%
    03:00 +13°C° 0 mm 4 mps 749 mmHg 85%
    04:00 +14°C° 0 mm 5 mps 749 mmHg 83%
    05:00 +15°C° 0 mm 5 mps 749 mmHg 80%
    06:00 +16°C° 0 mm 6 mps 749 mmHg 77%
    07:00 +17°C° 0 mm 6 mps 749 mmHg 74%
    08:00 +19°C° 0.1 mm 6 mps 749 mmHg 72%
    09:00 +20°C° 0.1 mm 6 mps 749 mmHg 71%
    10:00 +21°C° 0.1 mm 7 mps 749 mmHg 69%
    11:00 +21°C° 0.8 mm 6 mps 749 mmHg 73%
    12:00 +21°C° 0.8 mm 6 mps 749 mmHg 76%
    13:00 +20°C° 0.8 mm 6 mps 749 mmHg 79%
    14:00 +20°C° 0.3 mm 5 mps 749 mmHg 77%
    15:00 +20°C° 0.3 mm 5 mps 750 mmHg 75%
    16:00 +20°C° 0.3 mm 5 mps 750 mmHg 74%
    17:00 +19°C° 0 mm 4 mps 750 mmHg 76%
    18:00 +18°C° 0 mm 4 mps 750 mmHg 78%
    19:00 +16°C° 0 mm 3 mps 750 mmHg 80%
    20:00 +14°C° 0 mm 3 mps 751 mmHg 83%
    21:00 +13°C° 0 mm 2 mps 751 mmHg 86%
    22:00 +12°C° 0 mm 2 mps 751 mmHg 88%
    23:00 +10°C° 0 mm 2 mps 751 mmHg 88%

    Day after tomorrow, 28 May, Tuesday

    Time Temperature Precipitation Wind Pressure Humidity
    00:00 +10°C° 0 mm 2 mps 751 mmHg 88%
    01:00 +10°C° 0 mm 2 mps 751 mmHg 87%
    02:00 +10°C° 0 mm 2 mps 750 mmHg 87%
    03:00 +10°C° 0 mm 2 mps 750 mmHg 86%
    04:00 +10°C° 0 mm 2 mps 749 mmHg 86%
    05:00 +10°C° 1 mm 2 mps 749 mmHg 88%
    06:00 +11°C° 1 mm 3 mps 749 mmHg 90%
    07:00 +11°C° 1 mm 3 mps 749 mmHg 92%
    08:00 +11°C° 1.2 mm 3 mps 748 mmHg 93%
    09:00 +11°C° 1.2 mm 4 mps 748 mmHg 93%
    10:00 +11°C° 1.2 mm 4 mps 748 mmHg 93%
    11:00 +11°C° 0.5 mm 4 mps 748 mmHg 93%
    12:00 +11°C° 0.5 mm 4 mps 748 mmHg 93%
    13:00 +10°C° 0.5 mm 4 mps 748 mmHg 94%
    14:00 +10°C° 0.2 mm 4 mps 747 mmHg 93%
    15:00 +10°C° 0.2 mm 4 mps 747 mmHg 93%
    16:00 +9°C° 0.2 mm 5 mps 747 mmHg 92%
    17:00 +10°C° 0.4 mm 4 mps 747 mmHg 93%
    18:00 +10°C° 0.4 mm 4 mps 747 mmHg 93%
    19:00 +10°C° 0.4 mm 4 mps 748 mmHg 94%
    20:00 +8°C° 0.3 mm 4 mps 748 mmHg 94%
    21:00 +8°C° 0.3 mm 4 mps 748 mmHg 94%
    22:00 +8°C° 0.3 mm 4 mps 748 mmHg 94%
    23:00 +9°C° 0 mm 3 mps 748 mmHg 95%

    29 May, Wednesday

    Time Temperature Precipitation Wind Pressure Humidity
    00:00 +8°C° 0 mm 3 mps 748 mmHg 95%
    01:00 +8°C° 0 mm 3 mps 749 mmHg 96%
    02:00 +8°C° 0 mm 3 mps 749 mmHg 96%
    03:00 +7°C° 0 mm 3 mps 749 mmHg 95%
    04:00 +7°C° 0 mm 3 mps 749 mmHg 95%
    05:00 +9°C° 0 mm 2 mps 749 mmHg 91%
    06:00 +10°C° 0 mm 2 mps 750 mmHg 87%
    07:00 +13°C° 0 mm 2 mps 750 mmHg 83%
    08:00 +14°C° 0 mm 2 mps 750 mmHg 78%
    09:00 +16°C° 0 mm 3 mps 750 mmHg 72%
    10:00 +17°C° 0 mm 3 mps 751 mmHg 67%
    11:00 +18°C° 0.1 mm 3 mps 751 mmHg 67%
    12:00 +18°C° 0.1 mm 3 mps 751 mmHg 67%
    13:00 +18°C° 0.1 mm 3 mps 751 mmHg 68%
    14:00 +18°C° 0.4 mm 3 mps 751 mmHg 73%
    15:00 +17°C° 0.4 mm 3 mps 752 mmHg 78%
    16:00 +17°C° 0.4 mm 3 mps 752 mmHg 83%
    17:00 +16°C° 0.8 mm 3 mps 752 mmHg 85%
    18:00 +14°C° 0.8 mm 4 mps 753 mmHg 88%
    19:00 +13°C° 0.8 mm 4 mps 753 mmHg 90%
    20:00 +12°C° 0.1 mm 4 mps 754 mmHg 90%
    21:00 +11°C° 0.1 mm 4 mps 754 mmHg 91%
    22:00 +10°C° 0.1 mm 5 mps 755 mmHg 92%
    23:00 +10°C° 0.1 mm 4 mps 755 mmHg 91%

    30 May, Thursday

    Time Temperature Precipitation Wind Pressure Humidity
    00:00 +8°C° 0.1 mm 4 mps 756 mmHg 90%
    01:00 +8°C° 0.1 mm 3 mps 756 mmHg 89%
    02:00 +7°C° 0 mm 3 mps 756 mmHg 89%
    03:00 +7°C° 0 mm 3 mps 757 mmHg 89%
    04:00 +5°C° 0 mm 3 mps 757 mmHg 89%
    05:00 +6°C° 0 mm 4 mps 758 mmHg 85%
    06:00 +8°C° 0 mm 4 mps 758 mmHg 80%
    07:00 +10°C° 0 mm 4 mps 759 mmHg 76%
    08:00 +11°C° 0 mm 4 mps 759 mmHg 68%
    09:00 +12°C° 0 mm 4 mps 759 mmHg 61%
    10:00 +14°C° 0 mm 3 mps 760 mmHg 53%
    11:00 +16°C° 0 mm 3 mps 760 mmHg 51%
    12:00 +16°C° 0 mm 3 mps 760 mmHg 49%
    13:00 +17°C° 0 mm 3 mps 760 mmHg 46%
    14:00 +17°C° 0 mm 3 mps 759 mmHg 47%
    15:00 +17°C° 0 mm 3 mps 759 mmHg 48%
    16:00 +18°C° 0 mm 3 mps 759 mmHg 49%
    17:00 +17°C° 0 mm 3 mps 759 mmHg 56%
    18:00 +16°C° 0 mm 3 mps 759 mmHg 62%
    19:00 +15°C° 0 mm 2 mps 759 mmHg 69%
    20:00 +13°C° 0 mm 3 mps 759 mmHg 71%
    21:00 +12°C° 0 mm 3 mps 758 mmHg 74%
    22:00 +11°C° 0 mm 4 mps 758 mmHg 77%
    23:00 +11°C° 0 mm 4 mps 758 mmHg 76%

    31 May, Friday

    Time Temperature Precipitation Wind Pressure Humidity
    00:00 +10°C° 0 mm 5 mps 758 mmHg 75%
    01:00 +10°C° 0 mm 6 mps 757 mmHg 74%
    02:00 +12°C° 0 mm 5 mps 757 mmHg 76%
    03:00 +12°C° 0 mm 5 mps 756 mmHg 78%
    04:00 +12°C° 0 mm 5 mps 756 mmHg 80%
    05:00 +13°C° 0 mm 5 mps 756 mmHg 81%
    06:00 +14°C° 0 mm 6 mps 756 mmHg 83%
    07:00 +14°C° 0 mm 7 mps 756 mmHg 84%
    08:00 +13°C° 0.6 mm 6 mps 756 mmHg 86%
    09:00 +13°C° 0.6 mm 6 mps 757 mmHg 89%
    10:00 +11°C° 0.6 mm 6 mps 758 mmHg 92%
    11:00 +13°C° 0.1 mm 6 mps 758 mmHg 80%
    12:00 +14°C° 0.1 mm 6 mps 759 mmHg 68%
    13:00 +15°C° 0.1 mm 6 mps 760 mmHg 57%
    14:00 +15°C° 0 mm 6 mps 761 mmHg 54%
    15:00 +15°C° 0 mm 6 mps 761 mmHg 51%
    16:00 +15°C° 0 mm 6 mps 761 mmHg 48%
    17:00 +14°C° 0 mm 5 mps 762 mmHg 53%
    18:00 +13°C° 0 mm 4 mps 762 mmHg 59%
    19:00 +11°C° 0 mm 3 mps 763 mmHg 65%
    20:00 +10°C° 0 mm 2 mps 763 mmHg 68%
    21:00 +9°C° 0 mm 2 mps 763 mmHg 71%
    22:00 +8°C° 0 mm 1 mps 764 mmHg 74%
    23:00 +8°C° 0 mm 1 mps 763 mmHg 73%
    Show more